Miscellaneous Local Product
Issued by NWS Hastings, NE

Home | Current Version | Previous Version | Graphics & Text | Print | Product List | Glossary On
Versions: 1 2 3 4 5 6 7 8 9 10 11 12 13 14 15 16 17 18 19 20 21 22 23 24 25 26 27 28 29 30 31 32 33 34 35 36 37 38 39 40 41 42 43 44 45 46 47 48 49 50
000
AXUS43 KGID 260302
MISGRI

GID CWA HOURLY WEATHER ROUNDUP
NATIONAL WEATHER SERVICE HASTINGS NE
1000 PM CDT WED MAY 25 2016

NOTE: "FAIR" INDICATES FEW OR NO CLOUDS BELOW 12,000 FEET WITH NO
SIGNIFICANT WEATHER AND/OR OBSTRUCTIONS TO VISIBILITY.

...SOUTH CENTRAL NEBRASKA...

CITY           SKY/WX    TMP DP  RH WIND       PRES   REMARKS
GRAND ISLAND   CLOUDY    69  64  84 S7        29.86R
HASTINGS       CLEAR     68  63  84 CALM      29.87R
KEARNEY        CLOUDY    72  63  73 W35G43    29.96R
ORD            CLOUDY    68  57  68 SW15G25   29.89R
YORK           CLOUDY    70  66  88 CALM      29.86R
AURORA         PTCLDY    71  67  85 CALM      29.85R
LEXINGTON      CLOUDY    59  53  79 NE13      29.94F
HOLDREGE       CLOUDY    68  60  74 NW31G51   29.96R
HEBRON         CLOUDY    72  69  89 CALM      29.83R

...NEBRASKA PANHANDLE...

CITY           SKY/WX    TMP DP  RH WIND       PRES   REMARKS
CHADRON        CLEAR     52  44  74 CALM      29.90S
ALLIANCE       CLOUDY    52  45  77 E9        29.92F
SCOTTSBLUFF    CLOUDY    61  44  53 NE12      29.93R
SIDNEY         PTCLDY    51  46  83 S7        29.96S

...WESTERN AND NORTH CENTRAL NEBRASKA...

CITY           SKY/WX    TMP DP  RH WIND       PRES   REMARKS
VALENTINE      CLEAR     60  46  59 W9        29.85S
AINSWORTH      CLOUDY    58  48  68 SW7       29.87S
ONEILL         CLOUDY    64  52  66 CALM      29.85R
BROKEN BOW     CLOUDY    63  49  60 E12G25    29.89F
IMPERIAL       CLOUDY    57  51  80 N9        29.94R
NORTH PLATTE   CLOUDY    59  51  75 S8        29.90F
MCCOOK         CLOUDY    59  51  75 VRB5      29.95R

...EASTERN NEBRASKA...

CITY           SKY/WX    TMP DP  RH WIND       PRES   REMARKS
NORFOLK        CLOUDY    71  59  65 S8        29.80S
SO SIOUX CITY  CLEAR     73  65  75 S8        29.80R
TEKAMAH        PTCLDY    71  64  78 S8        29.81R
COLUMBUS       CLEAR     72  61  68 SE6       29.83S
ALBION         CLOUDY    68  60  75 CALM      29.83R
OMAHA EPPLEY   PTCLDY    71  66  84 SE7       29.83R
OFFUTT AFB     PTCLDY    68  68 100 E2        29.83R
MILLARD        PTCLDY    71  67  88 CALM      29.83R
LINCOLN        MOCLDY    74  68  81 E5        29.84R
NEBRASKA CITY  CLOUDY    71  69  92 S3        29.84S
BEATRICE       CLOUDY    73  69  88 E3        29.82S
FALLS CITY     CLOUDY    75  68  78 SE7       29.82S

...NORTHERN KANSAS...

CITY           SKY/WX    TMP DP  RH WIND       PRES   REMARKS
GOODLAND       CLEAR     57  45  64 N13       29.92R
HILL CITY      CLEAR     65  61  87 NE9       29.85S
NORTON         CLEAR     66  59  77 NE3       29.88R
PHILLIPSBURG   CLEAR     66  61  82 N5        29.87R
SMITH CENTER   CLEAR     63  61  94 N6        29.87R
BELOIT         PTCLDY    70  68  94 CALM      29.82R
HAYS           CLEAR     61  61 100 NE6       29.84S
RUSSELL        CLEAR     69  67  93 NE7       29.82S
CONCORDIA      CLOUDY    71  69  93 NW7       29.82R
SALINA         CLEAR     74  66  76 N5        29.80R
TOPEKA         CLOUDY    77  70  79 SE10      29.82S



USA.gov is the U.S. government's official web portal to all federal, state and local government web resources and services.